Time,TemperatureF,DewpointF,PressureIn,WindDirection,WindDirectionDegrees,WindSpeedMPH,WindSpeedGustMPH,Humidity,HourlyPrecipIn,Conditions,Clouds,dailyrainin,SoftwareType,DateUTC
2013-01-17 00:03:00,30.1,22.0,30.07,WNW,297,2.0,9.0,71,0.00,,,0.00,weatherlink.com 1.10,2013-01-17 06:03:00,
2013-01-17 00:18:00,29.5,22.0,30.09,NW,309,3.0,5.0,72,0.00,,,0.00,weatherlink.com 1.10,2013-01-17 06:18:00,
2013-01-17 00:33:00,29.1,21.0,30.10,West,274,3.0,6.0,73,0.00,,,0.00,weatherlink.com 1.10,2013-01-17 06:33:00,
2013-01-17 00:49:00,28.8,20.0,30.10,WNW,296,3.0,12.0,69,0.00,,,0.00,weatherlink.com 1.10,2013-01-17 06:49:00,
2013-01-17 01:04:00,28.4,18.0,30.11,WNW,290,6.0,8.0,66,0.00,,,0.00,weatherlink.com 1.10,2013-01-17 07:04:00,
2013-01-17 01:19:00,27.7,17.0,30.12,NW,315,0.0,9.0,64,0.00,,,0.00,weatherlink.com 1.10,2013-01-17 07:19:00,
2013-01-17 01:34:00,27.2,16.0,30.14,NW,310,5.0,8.0,64,0.00,,,0.00,weatherlink.com 1.10,2013-01-17 07:34:00,
2013-01-17 01:49:00,26.9,15.0,30.13,NNW,329,2.0,11.0,62,0.00,,,0.00,weatherlink.com 1.10,2013-01-17 07:49:00,
2013-01-17 02:04:00,26.4,15.0,30.15,WNW,300,4.0,8.0,62,0.00,,,0.00,weatherlink.com 1.10,2013-01-17 08:04:00,
2013-01-17 02:19:00,26.0,14.0,30.17,WNW,294,2.0,8.0,62,0.00,,,0.00,weatherlink.com 1.10,2013-01-17 08:19:00,
2013-01-17 02:34:00,25.4,14.0,30.18,WNW,295,3.0,7.0,62,0.00,,,0.00,weatherlink.com 1.10,2013-01-17 08:34:00,
2013-01-17 02:49:00,24.9,14.0,30.19,WNW,302,3.0,8.0,63,0.00,,,0.00,weatherlink.com 1.10,2013-01-17 08:49:00,
2013-01-17 03:04:00,24.2,10.0,30.19,WNW,297,4.0,10.0,56,0.00,,,0.00,weatherlink.com 1.10,2013-01-17 09:04:00,
2013-01-17 03:19:00,23.5,9.0,30.20,WNW,297,5.0,11.0,54,0.00,,,0.00,weatherlink.com 1.10,2013-01-17 09:19:00,
2013-01-17 03:34:00,23.0,8.0,30.21,NW,314,2.0,14.0,54,0.00,,,0.00,weatherlink.com 1.10,2013-01-17 09:34:00,
2013-01-17 03:49:00,22.4,8.0,30.22,NNW,333,3.0,10.0,55,0.00,,,0.00,weatherlink.com 1.10,2013-01-17 09:49:00,
2013-01-17 04:04:00,21.9,8.0,30.23,WNW,302,4.0,11.0,55,0.00,,,0.00,weatherlink.com 1.10,2013-01-17 10:04:00,
2013-01-17 04:19:00,21.5,7.0,30.23,NNW,348,4.0,11.0,54,0.00,,,0.00,weatherlink.com 1.10,2013-01-17 10:19:00,
2013-01-17 04:34:00,21.2,8.0,30.24,WNW,299,5.0,8.0,56,0.00,,,0.00,weatherlink.com 1.10,2013-01-17 10:34:00,
2013-01-17 04:53:00,20.8,8.0,30.24,NW,308,7.0,9.0,58,0.00,,,0.00,weatherlink.com 1.10,2013-01-17 10:53:00,
2013-01-17 05:04:00,20.2,7.0,30.25,NW,319,3.0,10.0,56,0.00,,,0.00,weatherlink.com 1.10,2013-01-17 11:04:00,
2013-01-17 05:20:00,20.1,5.0,30.25,NW,307,6.0,9.0,52,0.00,,,0.00,weatherlink.com 1.10,2013-01-17 11:20:00,
2013-01-17 05:35:00,19.9,5.0,30.26,WNW,288,4.0,10.0,52,0.00,,,0.00,weatherlink.com 1.10,2013-01-17 11:35:00,
2013-01-17 05:50:00,19.5,6.0,30.26,WNW,293,1.0,6.0,55,0.00,,,0.00,weatherlink.com 1.10,2013-01-17 11:50:00,
2013-01-17 06:05:00,19.2,6.0,30.26,NW,314,2.0,5.0,56,0.00,,,0.00,weatherlink.com 1.10,2013-01-17 12:05:00,
2013-01-17 06:20:00,18.9,6.0,30.28,NW,314,3.0,6.0,57,0.00,,,0.00,weatherlink.com 1.10,2013-01-17 12:20:00,
2013-01-17 06:35:00,18.6,6.0,30.28,NW,307,3.0,7.0,58,0.00,,,0.00,weatherlink.com 1.10,2013-01-17 12:35:00,
2013-01-17 06:50:00,18.4,7.0,30.29,NW,318,3.0,6.0,60,0.00,,,0.00,weatherlink.com 1.10,2013-01-17 12:50:00,
2013-01-17 07:05:00,18.2,7.0,30.29,WNW,302,2.0,6.0,61,0.00,,,0.00,weatherlink.com 1.10,2013-01-17 13:05:00,
2013-01-17 07:20:00,18.0,7.0,30.30,WNW,300,4.0,7.0,61,0.00,,,0.00,weatherlink.com 1.10,2013-01-17 13:20:00,
2013-01-17 07:35:00,17.7,7.0,30.31,NW,310,5.0,7.0,62,0.00,,,0.00,weatherlink.com 1.10,2013-01-17 13:35:00,
2013-01-17 07:50:00,17.5,7.0,30.32,NW,310,3.0,8.0,63,0.00,,,0.00,weatherlink.com 1.10,2013-01-17 13:50:00,
2013-01-17 08:05:00,17.5,7.0,30.32,WNW,302,5.0,9.0,63,0.00,,,0.00,weatherlink.com 1.10,2013-01-17 14:05:00,
2013-01-17 08:20:00,17.8,6.0,30.33,WNW,302,5.0,10.0,61,0.00,,,0.00,weatherlink.com 1.10,2013-01-17 14:20:00,
2013-01-17 08:35:00,18.0,6.0,30.33,WNW,302,5.0,10.0,60,0.00,,,0.00,weatherlink.com 1.10,2013-01-17 14:35:00,
2013-01-17 08:50:00,18.4,5.0,30.34,NW,309,7.0,12.0,57,0.00,,,0.00,weatherlink.com 1.10,2013-01-17 14:50:00,
2013-01-17 09:05:00,18.6,5.0,30.34,WNW,295,4.0,12.0,56,0.00,,,0.00,weatherlink.com 1.10,2013-01-17 15:05:00,
2013-01-17 09:20:00,19.2,6.0,30.35,ENE,75,2.0,11.0,56,0.00,,,0.00,weatherlink.com 1.10,2013-01-17 15:20:00,
2013-01-17 09:35:00,19.3,6.0,30.35,WNW,302,1.0,12.0,56,0.00,,,0.00,weatherlink.com 1.10,2013-01-17 15:35:00,
2013-01-17 09:50:00,19.7,5.0,30.35,NW,311,8.0,11.0,54,0.00,,,0.00,weatherlink.com 1.10,2013-01-17 15:50:00,
2013-01-17 10:05:00,19.7,5.0,30.36,WNW,302,4.0,13.0,53,0.00,,,0.00,weatherlink.com 1.10,2013-01-17 16:05:00,
2013-01-17 10:20:00,20.2,6.0,30.36,NW,316,1.0,8.0,55,0.00,,,0.00,weatherlink.com 1.10,2013-01-17 16:20:00,
2013-01-17 10:35:00,20.1,6.0,30.36,WNW,302,7.0,14.0,55,0.00,,,0.00,weatherlink.com 1.10,2013-01-17 16:35:00,
2013-01-17 10:50:00,20.6,7.0,30.37,WNW,302,11.0,12.0,55,0.00,,,0.00,weatherlink.com 1.10,2013-01-17 16:50:00,
2013-01-17 11:05:00,20.7,7.0,30.36,WNW,300,5.0,13.0,55,0.00,,,0.00,weatherlink.com 1.10,2013-01-17 17:05:00,
2013-01-17 11:20:00,21.5,8.0,30.36,NW,315,4.0,10.0,55,0.00,,,0.00,weatherlink.com 1.10,2013-01-17 17:20:00,
2013-01-17 11:35:00,20.9,7.0,30.36,WNW,300,7.0,15.0,55,0.00,,,0.00,weatherlink.com 1.10,2013-01-17 17:35:00,
2013-01-17 11:50:00,20.7,6.0,30.36,WNW,293,8.0,14.0,53,0.00,,,0.00,weatherlink.com 1.10,2013-01-17 17:50:00,
2013-01-17 12:05:00,20.9,6.0,30.35,West,273,4.0,14.0,53,0.00,,,0.00,weatherlink.com 1.10,2013-01-17 18:05:00,
2013-01-17 12:20:00,21.3,6.0,30.36,NW,310,6.0,11.0,53,0.00,,,0.00,weatherlink.com 1.10,2013-01-17 18:20:00,
2013-01-17 12:35:00,21.6,7.0,30.35,NW,319,9.0,14.0,54,0.00,,,0.00,weatherlink.com 1.10,2013-01-17 18:35:00,
2013-01-17 12:50:00,22.1,7.0,30.35,NW,319,9.0,13.0,53,0.00,,,0.00,weatherlink.com 1.10,2013-01-17 18:50:00,
2013-01-17 13:05:00,22.4,8.0,30.34,NNW,340,1.0,13.0,53,0.00,,,0.00,weatherlink.com 1.10,2013-01-17 19:05:00,
2013-01-17 13:20:00,22.8,8.0,30.33,WSW,245,2.0,8.0,54,0.00,,,0.00,weatherlink.com 1.10,2013-01-17 19:20:00,
2013-01-17 13:35:00,23.2,8.0,30.33,WNW,287,5.0,8.0,53,0.00,,,0.00,weatherlink.com 1.10,2013-01-17 19:35:00,
2013-01-17 13:50:00,23.3,9.0,30.33,NW,305,10.0,11.0,54,0.00,,,0.00,weatherlink.com 1.10,2013-01-17 19:50:00,
2013-01-17 14:05:00,23.7,9.0,30.33,WNW,285,5.0,11.0,54,0.00,,,0.00,weatherlink.com 1.10,2013-01-17 20:05:00,
2013-01-17 14:23:00,24.3,10.0,30.32,WNW,295,7.0,8.0,54,0.00,,,0.00,weatherlink.com 1.10,2013-01-17 20:23:00,
2013-01-17 14:36:00,24.1,9.0,30.32,WNW,285,4.0,8.0,53,0.00,,,0.00,weatherlink.com 1.10,2013-01-17 20:36:00,
2013-01-17 14:51:00,24.8,10.0,30.32,WNW,284,6.0,12.0,54,0.00,,,0.00,weatherlink.com 1.10,2013-01-17 20:51:00,
2013-01-17 15:06:00,25.1,10.0,30.32,West,262,2.0,10.0,52,0.00,,,0.00,weatherlink.com 1.10,2013-01-17 21:06:00,
2013-01-17 15:21:00,25.3,10.0,30.32,WSW,257,3.0,9.0,52,0.00,,,0.00,weatherlink.com 1.10,2013-01-17 21:21:00,
2013-01-17 15:36:00,25.6,10.0,30.32,WNW,284,3.0,8.0,52,0.00,,,0.00,weatherlink.com 1.10,2013-01-17 21:36:00,
2013-01-17 15:51:00,25.8,10.0,30.32,NW,309,3.0,8.0,52,0.00,,,0.00,weatherlink.com 1.10,2013-01-17 21:51:00,
2013-01-17 16:06:00,25.8,10.0,30.32,WNW,283,4.0,6.0,52,0.00,,,0.00,weatherlink.com 1.10,2013-01-17 22:06:00,
2013-01-17 16:21:00,25.8,11.0,30.33,WNW,290,2.0,7.0,53,0.00,,,0.00,weatherlink.com 1.10,2013-01-17 22:21:00,
2013-01-17 16:36:00,25.6,11.0,30.33,WNW,302,2.0,7.0,55,0.00,,,0.00,weatherlink.com 1.10,2013-01-17 22:36:00,
2013-01-17 16:51:00,25.2,11.0,30.34,NW,312,1.0,5.0,55,0.00,,,0.00,weatherlink.com 1.10,2013-01-17 22:51:00,
2013-01-17 17:06:00,24.8,11.0,30.34,West,274,1.0,3.0,56,0.00,,,0.00,weatherlink.com 1.10,2013-01-17 23:06:00,
2013-01-17 17:21:00,24.4,11.0,30.34,WNW,293,1.0,4.0,58,0.00,,,0.00,weatherlink.com 1.10,2013-01-17 23:21:00,
2013-01-17 17:36:00,24.0,11.0,30.35,WNW,293,1.0,3.0,59,0.00,,,0.00,weatherlink.com 1.10,2013-01-17 23:36:00,
2013-01-17 17:51:00,23.5,12.0,30.35,WNW,285,1.0,3.0,61,0.00,,,0.00,weatherlink.com 1.10,2013-01-17 23:51:00,
2013-01-17 18:06:00,22.7,11.0,30.35,West,267,0.0,1.0,62,0.00,,,0.00,weatherlink.com 1.10,2013-01-18 00:06:00,
2013-01-17 18:21:00,21.6,11.0,30.36,West,267,0.0,0.0,64,0.00,,,0.00,weatherlink.com 1.10,2013-01-18 00:21:00,
2013-01-17 18:36:00,21.6,11.0,30.36,West,277,1.0,2.0,65,0.00,,,0.00,weatherlink.com 1.10,2013-01-18 00:36:00,
2013-01-17 18:51:00,21.7,12.0,30.37,West,271,0.0,2.0,65,0.00,,,0.00,weatherlink.com 1.10,2013-01-18 00:51:00,
2013-01-17 19:06:00,21.3,12.0,30.37,West,272,0.0,1.0,66,0.00,,,0.00,weatherlink.com 1.10,2013-01-18 01:06:00,
2013-01-17 19:21:00,20.6,11.0,30.37,West,273,0.0,0.0,67,0.00,,,0.00,weatherlink.com 1.10,2013-01-18 01:21:00,
2013-01-17 19:36:00,19.2,11.0,30.37,West,273,0.0,0.0,70,0.00,,,0.00,weatherlink.com 1.10,2013-01-18 01:36:00,
2013-01-17 19:51:00,17.8,11.0,30.38,West,273,0.0,0.0,74,0.00,,,0.00,weatherlink.com 1.10,2013-01-18 01:51:00,
2013-01-17 20:06:00,18.2,12.0,30.38,West,271,0.0,0.0,75,0.00,,,0.00,weatherlink.com 1.10,2013-01-18 02:06:00,
2013-01-17 20:21:00,17.6,12.0,30.38,West,271,0.0,0.0,77,0.00,,,0.00,weatherlink.com 1.10,2013-01-18 02:21:00,
2013-01-17 20:36:00,17.2,11.0,30.39,West,271,0.0,0.0,77,0.00,,,0.00,weatherlink.com 1.10,2013-01-18 02:36:00,
2013-01-17 20:51:00,16.4,11.0,30.39,West,271,0.0,0.0,78,0.00,,,0.00,weatherlink.com 1.10,2013-01-18 02:51:00,
2013-01-17 21:06:00,15.8,11.0,30.39,West,271,0.0,0.0,80,0.00,,,0.00,weatherlink.com 1.10,2013-01-18 03:06:00,
2013-01-17 21:21:00,15.6,11.0,30.39,West,271,0.0,0.0,81,0.00,,,0.00,weatherlink.com 1.10,2013-01-18 03:21:00,
2013-01-17 21:36:00,16.4,12.0,30.40,West,271,0.0,0.0,83,0.00,,,0.00,weatherlink.com 1.10,2013-01-18 03:36:00,
2013-01-17 21:51:00,15.6,11.0,30.39,West,271,0.0,0.0,82,0.00,,,0.00,weatherlink.com 1.10,2013-01-18 03:51:00,
2013-01-17 22:06:00,15.6,11.0,30.38,West,272,0.0,0.0,83,0.00,,,0.00,weatherlink.com 1.10,2013-01-18 04:06:00,
2013-01-17 22:21:00,14.8,11.0,30.38,West,274,0.0,0.0,83,0.00,,,0.00,weatherlink.com 1.10,2013-01-18 04:21:00,
2013-01-17 22:36:00,14.1,10.0,30.38,West,274,0.0,0.0,84,0.00,,,0.00,weatherlink.com 1.10,2013-01-18 04:36:00,
2013-01-17 22:51:00,13.9,10.0,30.38,West,274,0.0,0.0,85,0.00,,,0.00,weatherlink.com 1.10,2013-01-18 04:51:00,
2013-01-17 23:06:00,13.3,10.0,30.39,West,274,0.0,0.0,86,0.00,,,0.00,weatherlink.com 1.10,2013-01-18 05:06:00,
2013-01-17 23:21:00,14.0,11.0,30.41,West,269,0.0,0.0,88,0.00,,,0.00,weatherlink.com 1.10,2013-01-18 05:21:00,
2013-01-17 23:36:00,13.9,11.0,30.41,West,268,0.0,0.0,87,0.00,,,0.00,weatherlink.com 1.10,2013-01-18 05:36:00,
2013-01-17 23:51:00,13.7,11.0,30.41,West,268,0.0,0.0,88,0.00,,,0.00,weatherlink.com 1.10,2013-01-18 05:51:00,